STARLINK-34710, 65365

Orbit data source: Space-Track

STARLINK-34710, 65365 is a payload satellite owned by SpaceX/Seattle (US) in LEO that was launched on Thu, 28 Aug 2025 UTC via an FALCON 9 launch vehicle from the Air Force Eastern Test Range (AFETR). Payload-class satellites include a variety of spacecraft equipped with specific instruments for various scientific and technological missions. These include communications satellites like Starlink; space stations such as the ISS; scientific satellites like the Hubble; Earth observation satellites from companies like Planet Labs, Umbra, and HawkEye 360; GPS; miniature CubeSats for education and research; and military/defense satellites.

Loading next visibility...
Identifier
65365, 2025-190Q
Orbit
LEO
Country
Flag of USUS
Related business
Manufacturer
SpaceX/Seattle
Mission
Operational Commercial Communications
Bus & Motor
STARLINK V2MO, Unknown motor
Mass
575 kg wet, ~530 kg dry
Launch date (UTC)
2025-08-28 (7 months ago)
Launch vehicle
FALCON 9
Launch site
Air Force Eastern Test Range (AFETR)
Object type
Payload
Rocket body
Debris
Shape & HBR
Box + 2 Pan, 17.7 m
Radar Cross Section
36.964 m², Large (>1 m²)

Expand to show TLE details & history
Last TLE update: 8 hours ago

TLE from 8 hours ago
0 STARLINK-34710
1 65365U 25190Q   26094.24814554  .00056135  00000-0  18931-2 0  9990
2 65365  53.1602  49.7946 0001219  79.3866 280.7272 15.30200790 33196
Epoch: 2026-04-04T05:57Z
TLE epoch observation values (Epoch: 2026-04-04T05:57:19.774Z)
Latitude
-0.00003°
Longitude
127.89154°
Altitude
475.957 km
Speed
7.629 km/s
True Right ascension
03h 19m 10s
True Declination
0° 00' 00"
Sunlit
Object was in daylight at epoch
Visualization orbit readout
Latitude
Unknown
Longitude
Unknown
Altitude
Unknown
Speed
Unknown
Apparent Right ascension
Unknown
Apparent Declination
Unknown
Sunlit
N/A
Visualization observer readout
Local Sidereal Time
19:25:34
Azimuth
Unknown
Elevation
Unknown
Doppler factor
Unknown
Orbital elements
Apogee altitude
476.305 km
Perigee altitude
474.634 km
Semi-major axis
6,853.606 km
Eccentricity
0.00012
Inclination
53.1602°
RAAN
49.7946°
Arg. of periapsis
79.3866°
True anomaly
280.71348°
Mean anomaly
280.7272°
Eccentric anomaly
280.72034°
Mean motion
3.82529 °/min
Orbital period
94.11 mins
BSTAR
0.0018931
Loading maneuver chart data...
Computing Atmospheric mass density...
Loading historical data...
Loading historical data...
Loading historical data...
Loading historical data...
Loading historical data...
Loading historical data...
Loading historical data...

Documentation

Showing up to 5 results
|